This is the latest recevied weather packets stored in our database for station/object W4SKW. If no packets are shown the sender has not sent any weather packets the latest 1 day(s).
| Time | Temp. | Humidity | Pressure | Rain* | Wind** | Luminosity | Snow |
|---|---|---|---|---|---|---|---|
| 1778011551 | 26.67° C | 40% | 1014.4 hPa | 0 mm | 0.45 m/s, 258° | 641 W/m² | - |
| 1778011248 | 26.67° C | 41% | 1014.6 hPa | 0 mm | 0.89 m/s, 292° | 655 W/m² | - |
| 1778010944 | 26.67° C | 44% | 1014.5 hPa | 0 mm | 0 m/s | 664 W/m² | - |
| 1778010642 | 26.67° C | 41% | 1014.6 hPa | 0 mm | 0.45 m/s, 263° | 647 W/m² | - |
| 1778010339 | 26.67° C | 58% | 1014.6 hPa | 0 mm | 0 m/s | 678 W/m² | - |
| 1778010034 | 26.67° C | 43% | 1014.7 hPa | 0 mm | 0 m/s | 675 W/m² | - |
| 1778009732 | 26.11° C | 45% | 1014.6 hPa | 0 mm | 0.89 m/s, 320° | 618 W/m² | - |
| 1778009429 | 26.67° C | 47% | 1014.7 hPa | 0 mm | 0 m/s | 391 W/m² | - |
| 1778009127 | 26.67° C | 44% | 1014.8 hPa | 0 mm | 1.79 m/s, 250° | 564 W/m² | - |
| 1778008824 | 26.11° C | 43% | 1014.9 hPa | 0 mm | 1.79 m/s, 317° | 566 W/m² | - |
| 1778008517 | 26.11° C | 43% | 1014.9 hPa | 0 mm | 1.79 m/s, 317° | 566 W/m² | - |
| 1778008214 | 26.11° C | 40% | 1015 hPa | 0 mm | 0.89 m/s, 274° | 513 W/m² | - |
| 1778007908 | 25.56° C | 43% | 1015 hPa | 0 mm | 1.34 m/s, 330° | 571 W/m² | - |
| 1778007604 | 26.11° C | 39% | 1015.2 hPa | 0 mm | 0 m/s | 377 W/m² | - |
| 1778007296 | 26.67° C | 37% | 1015.3 hPa | 0 mm | 0 m/s | 416 W/m² | - |
| 1778006992 | 26.11° C | 40% | 1015.3 hPa | 0 mm | 0.89 m/s, 296° | 609 W/m² | - |
| 1778006689 | 25.56° C | 49% | 1015.3 hPa | 0 mm | 0.45 m/s, 281° | 547 W/m² | - |
| 1778006385 | 25.56° C | 49% | 1015.3 hPa | 0 mm | 0.45 m/s, 281° | 547 W/m² | - |
| 1778006083 | 26.11° C | 44% | 1015.2 hPa | 0 mm | 0.89 m/s, 323° | 442 W/m² | - |
| 1778005779 | 26.11° C | 45% | 1015.2 hPa | 0 mm | 0.45 m/s, 281° | 718 W/m² | - |
| 1778005477 | 26.11° C | 51% | 1015.2 hPa | 0 mm | 0 m/s | 603 W/m² | - |
| 1778005172 | 26.11° C | 45% | 1015.6 hPa | 0 mm | 0.89 m/s, 299° | 770 W/m² | - |
| 1778004870 | 25.56° C | 45% | 1015.4 hPa | 0 mm | 0 m/s | 843 W/m² | - |
| 1778004567 | 25.56° C | 48% | 1015.6 hPa | 0 mm | 0 m/s | 720 W/m² | - |
| 1778004263 | 25.56° C | 46% | 1015.3 hPa | 0 mm | 0.45 m/s, 359° | 540 W/m² | - |
* Rain latest hour (hover to see other rain measurements)
** Current wind speed in m/s (hover to see current wind gust speed)